Regional Weather Roundup
Issued by NWS Charleston, WV

Home | Current Version | Previous Version | Text Only | Print | Product List | Glossary Off
Versions: 1 2 3 4 5 6 7 8 9 10 11 12 13 14 15 16 17 18 19 20 21 22 23 24 25 26 27 28 29 30 31 32 33 34 35 36 37 38 39 40 41 42 43 44 45 46 47 48 49 50

000
ASUS41 KRLX 281210
RWRRLX
West Virginia Regional Weather Roundup
National Weather Service Charleston WV
800 AM EDT SAT MAR 28 2015

Note: "fair" indicates few or no clouds below 12,000 feet with no
significant weather and/or obstructions to visibility.

WVZ003-281300-
Northern Panhandle of West Virginia

CITY           SKY/WX    TMP DP  RH WIND       PRES   REMARKS
WHEELING       CLOUDY    14   4  64 NW8       30.10R WCI   3
$$

WVZ009-281300-
Northwest West Virginia

CITY           SKY/WX    TMP DP  RH WIND       PRES   REMARKS
PARKERSBURG    CLEAR     18   6  59 NW9       30.19R WCI   7
$$

WVZ006-281300-
Western West Virginia

CITY           SKY/WX    TMP DP  RH WIND       PRES   REMARKS
HUNTINGTON     CLEAR     22  13  68 N7        30.17R
$$

WVZ015-281300-
West Central West Virginia

CITY           SKY/WX    TMP DP  RH WIND       PRES   REMARKS
CHARLESTON     LGT SNOW  22  16  78 VRB7      30.14R
$$

WVZ022-031-281300-
North Central West Virginia

CITY           SKY/WX    TMP DP  RH WIND       PRES   REMARKS
CLARKSBURG     CLEAR     18   6  59 NW13      30.08R WCI   5
MORGANTOWN     MOCLDY    16   3  56 VRB6      30.09R WCI   7
$$

WVZ025-035-042-045-281300-
Southern West Virginia

CITY           SKY/WX    TMP DP  RH WIND       PRES   REMARKS
BECKLEY        PTCLDY    18   3  52 NW10      29.98R WCI   6
LOGAN          CLOUDY    23   1  39 NW14      30.05R
BLUEFIELD      CLOUDY    20   6  55 NW9G20    29.96R WCI   9
LEWISBURG      CLOUDY    22  11  62 W12       29.97R
$$

WVZ047-281300-
Northern Mountains of West Virginia

CITY           SKY/WX    TMP DP  RH WIND       PRES   REMARKS
ELKINS         MOCLDY    15   3  59 NW12G23   30.00R WCI   2
$$

WVZ052-281300-
Eastern Panhandle of West Virginia

CITY           SKY/WX    TMP DP  RH WIND       PRES   REMARKS
MARTINSBURG      N/A     26   6  42 NW15G22   30.00R
PETERSBURG     PTCLDY    21   1  42 N10G18    30.04R
$$



USA.gov is the U.S. government's official web portal to all federal, state and local government web resources and services.